This is the latest recevied weather packets stored in our database for station/object SP1BMW-13. If no packets are shown the sender has not sent any weather packets the latest 1 day(s).
| Time | Temp. | Humidity | Pressure | Rain* | Wind** | Luminosity | Snow |
|---|---|---|---|---|---|---|---|
| 1778062431 | 9.44° C | 94% | 1005.3 hPa | 0.76 mm | 1.34 m/s, 33° | 121 W/m² | - |
| 1778062135 | 9.44° C | 95% | 1005.2 hPa | 0.76 mm | 0.89 m/s, 30° | 96 W/m² | - |
| 1778061954 | 9.44° C | 95% | 1005.3 hPa | 0.76 mm | 0.45 m/s, 41° | 99 W/m² | - |
| 1778061892 | 9.44° C | 95% | 1005.4 hPa | 1.02 mm | 1.34 m/s, 48° | 104 W/m² | - |
| 1778061832 | 9.44° C | 95% | 1005.4 hPa | 1.02 mm | 0.89 m/s, 53° | 94 W/m² | - |
| 1778061772 | 9.44° C | 95% | 1005.3 hPa | 1.02 mm | 1.34 m/s, 48° | 94 W/m² | - |
| 1778061592 | 9.44° C | 95% | 1005.4 hPa | 1.02 mm | 0.45 m/s, 47° | 112 W/m² | - |
| 1778061533 | 9.44° C | 95% | 1005.3 hPa | 1.02 mm | 0 m/s | 111 W/m² | - |
| 1778061412 | 9.44° C | 95% | 1005.2 hPa | 1.02 mm | 0.89 m/s, 5° | 104 W/m² | - |
| 1778061352 | 9.44° C | 95% | 1005.3 hPa | 1.02 mm | 0.45 m/s, 352° | 111 W/m² | - |
| 1778061292 | 9.44° C | 95% | 1005.3 hPa | 1.02 mm | 0 m/s | 108 W/m² | - |
| 1778061232 | 9.44° C | 95% | 1005.2 hPa | 1.02 mm | 0.89 m/s, 42° | 112 W/m² | - |
| 1778061172 | 9.44° C | 95% | 1005.3 hPa | 1.02 mm | 1.34 m/s, 337° | 120 W/m² | - |
| 1778061112 | 9.44° C | 95% | 1005.2 hPa | 1.02 mm | 1.34 m/s, 330° | 125 W/m² | - |
| 1778060992 | 9.44° C | 95% | 1005.1 hPa | 1.27 mm | 0.45 m/s, 27° | 123 W/m² | - |
| 1778060932 | 9.44° C | 95% | 1005.1 hPa | 1.02 mm | 0.45 m/s, 42° | 92 W/m² | - |
| 1778060812 | 9.44° C | 95% | 1005.1 hPa | 1.02 mm | 0.45 m/s, 355° | 80 W/m² | - |
| 1778060752 | 9.44° C | 95% | 1005.3 hPa | 1.02 mm | 0.45 m/s, 345° | 82 W/m² | - |
| 1778060691 | 9.44° C | 95% | 1005.2 hPa | 1.02 mm | 0 m/s | 82 W/m² | - |
| 1778060632 | 9.44° C | 95% | 1005.1 hPa | 1.02 mm | 0.45 m/s, 63° | 85 W/m² | - |
| 1778060452 | 9.44° C | 95% | 1005.2 hPa | 1.02 mm | 0.45 m/s, 38° | 74 W/m² | - |
| 1778060394 | 9.44° C | 95% | 1005.2 hPa | 1.02 mm | 0.89 m/s, 36° | 74 W/m² | - |
| 1778060272 | 9.44° C | 95% | 1005 hPa | 1.02 mm | 0 m/s | 95 W/m² | - |
| 1778060092 | 10° C | 95% | 1005.1 hPa | 1.02 mm | 0.45 m/s, 59° | 101 W/m² | - |
| 1778060032 | 10° C | 96% | 1004.9 hPa | 1.02 mm | 0.89 m/s, 338° | 121 W/m² | - |
* Rain latest hour (hover to see other rain measurements)
** Current wind speed in m/s (hover to see current wind gust speed)